Content
SEND FEEDBACK

Daily
Averages
Monthly
Summary
United States of America

SOUTH PRAIRIE, WASHINGTON


Home > North America > United States > Washington
Elevation: 795 feet     Latitude: 47 10N     Longitude: 122 00W

WEATHER
 
SELECT A DAY
Number of Records: 207,301;   Date Range: 1/1/95 - 8/30/14
 
SHARE

PRINT THIS DATA

[ ← Previous Day ]
WEATHER ALMANAC - FEBRUARY 13, 2013
[ Next Day → ]
[ °C ]   °F
Weather ElementAverageHighLow
Temperature46.3 °F48.9 °F (3:53 pm)44.6 °F (5:53 am)
Dewpoint40.6 °F44.6 °F (2:24 am)37.9 °F (6:53 am)
Humidity80.9 %93 % (2:24 am)69 % (3:53 pm)
Barometer30.43 in30.53 in (11:53 pm)30.34 in (1:35 am)
Wind Speed9.2 mph15 mph (1:35 am)
Wind Gust23 mph (1:35 am)
Weather ElementAverage
Visibility9.6 mi
Wind DirectionSSW (203.7 °)

Weather ElementTotal
Precipitation0.11 in
Heating Degree Days18.3 (Base 65)
Averaged from 35 records on February 13, 2013
WEATHER CONDITIONS BREAKOUT
WIND DIRECTION BREAKOUT
WEATHER BY HOUR - FEBRUARY 13, 2013
[ °C ]   °F
Local TimeTemperatureDewpointHumidityBarometerVisibilityWind DirectionWind SpeedGust SpeedPrecipitationEventsConditions
1:35 AM48.2 °F42.8 °F82 %30.34 in10.0 miSSW (200°)15.0 mph23.0 mphOvercast
1:53 AM48.0 °F43.0 °F83 %30.36 in10.0 miSSW (210°)13.8 mph20.7 mphOvercast
2:24 AM46.4 °F44.6 °F93 %30.34 in8.0 miSW (220°)15.0 mph0.00 inRainLight Rain
2:46 AM46.4 °F44.6 °F93 %30.34 in10.0 miSSW (210°)15.0 mph0.00 inOvercast
2:53 AM46.9 °F44.1 °F90 %30.36 in10.0 miSSW (210°)15.0 mph0.00 inOvercast
3:30 AM46.4 °F42.8 °F87 %30.34 in10.0 miSSW (210°)11.5 mphMostly Cloudy
3:53 AM46.9 °F41.0 °F80 %30.38 in10.0 miSW (230°)8.1 mphMostly Cloudy
4:15 AM46.4 °F41.0 °F81 %30.36 in10.0 miSW (220°)10.4 mphMostly Cloudy
4:53 AM45.0 °F39.0 °F80 %30.39 in10.0 miSSW (210°)13.8 mphOvercast
5:53 AM44.6 °F39.2 °F81 %30.37 in10.0 miSSW (200°)10.4 mphOvercast
6:02 AM44.6 °F39.2 °F81 %30.37 in10.0 miSSW (210°)11.5 mphMostly Cloudy
6:53 AM45.0 °F37.9 °F76 %30.41 in10.0 miSW (220°)10.4 mphMostly Cloudy
7:53 AM45.0 °F39.0 °F80 %30.43 in10.0 miSSW (210°)10.4 mphOvercast
8:53 AM45.0 °F37.9 °F76 %30.44 in10.0 miSSW (210°)10.4 mphOvercast
9:53 AM45.0 °F37.9 °F76 %30.46 in10.0 miSSW (210°)10.4 mphOvercast
10:53 AM46.0 °F39.0 °F76 %30.46 in10.0 miSW (220°)9.2 mphOvercast
11:53 AM46.9 °F39.0 °F74 %30.46 in10.0 miSSW (210°)10.4 mphOvercast
12:53 PM48.0 °F39.0 °F71 %30.46 in10.0 miSW (220°)10.4 mphOvercast
1:53 PM48.0 °F39.0 °F71 %30.45 in10.0 miSSW (210°)10.4 mphOvercast
2:53 PM48.0 °F39.0 °F71 %30.46 in10.0 miSW (220°)8.1 mphOvercast
3:05 PM48.2 °F39.2 °F71 %30.44 in10.0 miSW (220°)9.2 mphOvercast
3:53 PM48.9 °F39.0 °F69 %30.46 in10.0 miSW (230°)6.9 mphOvercast
4:53 PM48.0 °F39.9 °F74 %30.47 in10.0 miSW (230°)8.1 mphOvercast
5:14 PM46.4 °F39.2 °F76 %30.44 in10.0 miSSW (210°)6.9 mph0.00 inRainLight Rain
5:32 PM46.4 °F39.2 °F76 %30.45 in10.0 miSW (220°)5.8 mph0.00 inOvercast
5:53 PM46.9 °F39.9 °F77 %30.48 in10.0 miSSW (210°)5.8 mph0.00 inOvercast
6:53 PM46.9 °F41.0 °F80 %30.48 in10.0 miSSW (210°)4.6 mphOvercast
7:08 PM46.4 °F41.0 °F81 %30.46 in10.0 miCalmOvercast
7:53 PM46.0 °F41.0 °F83 %30.49 in8.0 miSouth (170°)3.5 mph0.01 inRainLight Rain
8:53 PM46.0 °F43.0 °F89 %30.50 in6.0 miSE (140°)4.6 mph0.06 inRainLight Rain
9:12 PM44.6 °F42.8 °F93 %30.47 in9.0 miSSW (200°)5.8 mph0.01 inOvercast
9:27 PM44.6 °F42.8 °F93 %30.47 in8.0 miSSW (200°)9.2 mph0.01 inOvercast
9:53 PM45.0 °F42.1 °F90 %30.51 in6.0 miSSW (210°)8.1 mph0.02 inRainLight Rain
10:53 PM45.0 °F42.1 °F90 %30.52 in10.0 miSSW (210°)6.9 mph0.00 inLight Drizzle
11:53 PM45.0 °F41.0 °F86 %30.53 in10.0 miSSW (210°)5.8 mph0.00 inOvercast
Hourly data recorded from KSEA, located miles away from South Prairie, Washington







STORIES FROM OUR PARTNERS